Orbital Elements at Epoch 2459000.5 (2020-May-31.0) TDB
Reference: JPL 12 (heliocentric ecliptic J2000)
Element | Value | Uncertainty (1-sigma) | Units |
e | .01877465320192527 | 1.1554e-07 | |
a | 3.183656968609494 | 8.2519e-08 | au |
q | 3.123884913109958 | 3.1255e-07 | au |
i | 17.52178496531787 | 9.5668e-06 | deg |
node | 126.0335059635836 | 2.3834e-05 | deg |
peri | 61.29227867545378 | 0.00033599 | deg |
M | 61.1378497378146 | 0.00032468 | deg |
tp | 2458648.132790290654 (2019-Jun-13.63279029) | 0.0018788 | TDB |
period | 2074.855364383295 5.68 | 8.0669e-05 2.209e-07 | d yr |
n | .173506069955388 | 6.7458e-09 | deg/d |
Q | 3.24342902410903 | 8.4068e-08 | au |
|
| | Orbit Determination Parameters
Additional Information
|